www.pogodaiklimat.ru

Погода и климат >> Архив погоды >> Россия >> Якутия >> Нюрба


ПОГОДА в Нюрбе

  • Прогноз погоды в Нюрбе
  • Монитор погоды в Нюрбе
  • Климат города

АРХИВ ПОГОДЫ в Нюрбе

Время (UTC), дата Ветер
(напр.,м/с)
 
Видим.   Явления Облачность Т
(С)
Тd
(С)
f
(%)
Тe
(С)
Тes
(С)
Комфортность P
(гПа)
Po
(гПа)
Тmin
(С)
Tmax
(С)
R
(мм)
R24
(мм)
S
(см)
06 23.04 З 5
{10}
50 км 3/3 1000 м
[Cu hum]
+4.3 -8.1 40 0 +3 1026.0 1011.1
09 23.04 З 2 50 км 3/3 1000 м
[Cu hum]
+5.3 -7.3 40 +4 +5 1026.5 1011.6
12 23.04 штиль 0 50 км 3/0
[Ac trans]
+1.0 -6.6 57 +1 +1 1028.1 1012.9 +5.4
15 23.04 штиль 0 50 км ясно -3.7 -7.0 78 -5 -5 1028.6 1013.2
18 23.04 штиль 0 50 км ясно -5.9 -7.8 86 -7 -7 1028.7 1013.2
21 23.04 штиль 0 20 км ясно -7.1 -8.4 90 -8 -8 1029.8 1014.1
00 24.04 ЮЗ 1 50 км ясно -0.2 -5.0 70 -2 +3 1030.0 1014.8 -7.3
03 24.04 ЮЗ 4 50 км 3/1 600 м
[Cu hum Ci fib]
+6.6 -9.4 31 +4 +9 1028.3 1013.4
06 24.04 З 4 50 км 4/1 600 м
[Cu hum Ci fib]
+8.3 -10.3 26 +6 +11 1026.2 1011.5
09 24.04 З 3 50 км 10/1 600 м
[Sc Ci sp]
+7.8 -9.4 28 +6 +8 1025.6 1010.9
12 24.04 ЮЗ 2 50 км 10/3 600 м
[Sc Ac trans Ci fib]
+4.4 -8.0 40 +3 +3 1025.2 1010.3 +8.5
15 24.04 ЮЗ 2 50 км 10/0
[Ac und]
+2.2 -7.9 47 -0 -0 1024.8 1009.8
18 24.04 ЮЗ 2 50 км 10/0
[Ac und]
+0.9 -6.7 57 -2 -2 1024.5 1009.4
21 24.04 ЮЗ 1 50 км 10/0
[Ac trans Ci fib]
-1.7 -6.6 69 -4 -3 1024.3 1009.1
00 25.04 ЮЗ 2 50 км 10/0
[Ac trans Ci fib]
+3.0 -6.6 49 +1 +3 1024.3 1009.3 -2.0
03 25.04 ЮЗ 3 50 км 10/3 600 м
[Cu hum Ci fib]
+9.4 -5.7 34 +8 +12 1023.2 1008.5
06 25.04 ЮЗ 5 50 км 10/3 600 м
[Cu med, cong Cs]
+11.2 -6.0 29 +9 +12 1021.1 1006.6
09 25.04 З 3 50 км 10/3 600 м
[Cu med, cong Cs]
+11.7 -7.4 26 +11 +12 1019.3 1004.9
12 25.04 В 1 20 км 10/0
[Ac trans Ci sp]
+7.9 -2.7 47 +8 +8 1017.8 1003.2 +12.4
15 25.04 ЮЗ 1 50 км 10/0
[Ac trans Ci sp]
+4.3 -3.2 58 +3 +3 1015.5 1000.7
18 25.04 Ю 2 50 км 10/0
[Ac trans Ci sp]
+4.8 -2.5 59 +3 +3 1012.0 997.3
21 25.04 ЮЗ 3 50 км 10/4 600 м
[Cb cap As op]
+4.0 -2.9 61 +1 +1 1008.7 994.0
00 26.04 З 2 50 км {ливн. осадки} 10/4 600 м
[Cb cap Ac trans Ci fib]
+5.2 -4.9 48 +3 +5 1007.5 992.8 +3.6 0.0
03 26.04 З 5-10
{11}
50 км {ливн. осадки} 10/5 600 м
[Cb cap Ac trans Ci fib]
+7.4 -1.7 52 +4 +5 1007.9 993.3
06 26.04 З 6-11
{12}
50 км {ливн. осадки} 10/5 600 м
[Cb cap Ac und]
+6.8 -4.4 45 +3 +3 1009.5 994.9
09 26.04 З 5
{11}
50 км 10/6 600 м
[Cb cap As op]
+5.9 -1.7 58 +2 +2 1010.4 995.8
12 26.04 З 4 50 км 10/4 600 м
[Cb cap As op]
+4.9 -3.1 56 +1 +1 1010.5 995.8 +9.6 0.0
15 26.04 З 2 50 км 10/4 600 м
[Sc As op]
+2.4 -3.2 66 -0 -0 1008.9 994.1
18 26.04 З 2 50 км 10/4 600 м
[Sc As op]
+1.5 -3.6 69 -2 -2 1008.4 993.5
21 26.04 З 2 50 км 10/0
[As trans Cs]
-1.6 -5.0 78 -5 -5 1006.4 991.5
00 27.04 СЗ 2 50 км 10/0
[As trans Cs]
+3.3 -4.6 56 +1 +3 1005.5 990.8 -1.6
03 27.04 СЗ 4 50 км 10/4 600 м
[Sc Ci fib]
+7.2 -3.3 47 +4 +7 1004.0 989.6
06 27.04 СЗ 4 50 км 10/5 600 м
[Cb cap Ac trans Ci fib]
+7.8 -5.7 38 +5 +7 1003.9 989.5
09 27.04 СЗ 2 50 км 10/4 600 м
[Cb cap Ac und]
+7.2 -5.4 40 +6 +6 1004.2 989.7
12 27.04 штиль 0 50 км 10/4 1000 м
[Sc Ac und]
+6.1 -4.3 47 +6 +6 1005.8 991.3 +9.1
15 27.04 штиль 0 50 км 5/0
[Ac trans]
0.0 -5.2 68 -1 -1 1006.1 991.3
18 27.04 штиль 0 50 км 10/0
[Ac trans Cs]
-3.1 -5.1 86 -4 -4 1005.9 990.8
21 27.04 штиль 0 50 км 10/0
[Ac As Ci fib]
-4.1 -5.3 91 -5 -5 1003.9 988.8
00 28.04 штиль 0 10 км 10/3 1000 м
[Cu hum Ac As Ci fib]
+1.3 -2.9 74 0 +3 1001.5 986.8 -0.5
03 28.04 ЮВ 3 20 км 10/3 600 м
[Sc Ac trans Ci sp]
+6.7 -5.4 42 +4 +7 997.3 982.9
06 28.04 В 4 50 км 10/5 600 м
[Cb cap Ac und]
+7.0 -5.7 40 +4 +5 993.1 978.7
09 28.04 В 4
{10}
10 км 10/6 750 м
[Cb cap Ac und]
+6.8 -4.8 43 +4 +4 993.7 979.3
12 28.04 СВ 4
{10}
50 км 10/5 600 м
[Sc Ac und]
+3.9 -2.3 64 -0 -0 997.2 982.7 +8.1
15 28.04 С 4 50 км 10/5 600 м
[Sc Ac und]
+2.4 -1.2 77 -2 -2 1000.9 986.3
18 28.04 С 3 50 км слабый дождь 10/5 600 м
[Sc Ac und]
+0.4 -1.0 90 -4 -4 1004.8 990.0
21 28.04 С 4 20 км слабый снег {дождь} 10/6 480 м
[St As op]
-1.7 -3.8 86 -8 -8 1008.2 993.2
00 29.04 С 4 50 км в посл. час ливневой снег 10/6 570 м
[Cb cap Ac und]
-2.8 -5.5 82 -9 -8 1010.7 995.6 -3.0 0.8 1
03 29.04 С 3 50 км 10/3 600 м
[Sc Ac trans Ci fib]
+0.9 -6.3 59 -3 -0 1011.7 996.8
06 29.04 С 3 50 км ясно +4.1 -9.0 38 +1 +9 опасность
простуды
1011.5 996.8
09 29.04 СЗ 2 50 км 3/0
[Ci fib]
+5.2 -9.0 35 +4 +6 1010.9 996.2
12 29.04 штиль 0 50 км 8/0
[Ci fib]
+1.3 -8.9 47 +1 +1 1010.0 995.1 +5.3
15 29.04 Ю 3 50 км 10/0
[Ci fib]
-1.1 -5.8 70 -6 -6 1009.0 994.0
18 29.04 Ю 3 50 км 10/0
[Ac trans Ci sp]
-1.4 -4.6 79 -6 -6 1006.7 991.8
21 29.04 Ю 3 50 км 10/0
[As op]
-1.4 -4.3 81 -6 -6 1003.1 988.2
00 30.04 ЮВ 4 50 км 10/0
[As op]
+0.8 -3.1 75 -4 -4 998.4 983.7 -2.4

 

Местоположение метеостанции Нюрба (Якутия, Россия): широта 63.28 долгота 118.30 высота над уровнем моря 119 м.

В архиве по умолчанию представлена погода в Нюрбе за последнюю неделю. Архивные данные за месяц целиком и за предыдущие месяцы, начиная с января 2011 года, Вы можете получить, выбрав интересующий диапазон дат из раскрывающегося списка и нажав кнопку "Ввод!".

Внимание! Время в таблицах - всемирное. Для получения местного времени необходимо прибавить поправку, которая в Нюрбе равна 9 ч.

Смотрите также архив погоды в соседних городах и на ближайших метеорологических станциях:

Погода в Верхневилюйске (Якутия, Россия) (97 км)
Погода в Чумпуруке (Якутия, Россия) (126 км)
Погода в Сунтаре (Якутия, Россия) (129 км)
Погода в Крестяхе (Якутия, Россия) (159 км)
Погода в Вилюйске (Якутия, Россия) (172 км)
Погода в Мирном (Якутия, Россия) (243 км)
Погода в Килиере (Якутия, Россия) (264 км)
Погода в Дорожном (Якутия, Россия) (265 км)
Погода в Чернышевском (Якутия, Россия) (298 км)
Погода в Эйке (Якутия, Россия) (309 км)

Пояснения к столбцам:

Ветер - указаны скорость ветра в м/с - средняя за 10 мин, порывы в срок и между сроками (в фигурных скобках) и направление, откуда дует ветер: С - северный, СВ - северо-восточный, В - восточный, ЮВ - юго-восточный, Ю - южный, ЮЗ - юго-западный, З - западный, СЗ - северо-западный.
Видимость - горизонтальная дальность видимости в метрах или километрах. При видимости от 1 до 10 км при отсутствии осадков обычно наблюдается дымка, при ухудшении видимости до 1 км и менее - туман. В сухую погоду видимость может ухудшаться дымом, пылью или мглою.
Явления - указаны атмосферные явления, наблюдавшиеся в срок или в последний час перед сроком; фигурными скобками обозначены явления, наблюдавшиеся между сроками (за 1-3 часа до срока); квадратными скобками обозначены град или гололедные отложения с указанием их диаметра в мм.
Облачность - указаны через наклонную черту общая и нижняя облачность в баллах и высота нижней границы облаков в метрах; квадратными скобками обозначены формы облаков: Ci - перистые, Cs - перисто-слоистые, Cc - перисто-кучевые, Ac - высококучевые, As - высокослоистые, Sc - слоисто-кучевые, Ns - слоисто-дождевые, Cu - кучевые, Cb - кучево-дождевые. Подробнее классификацию облаков см. в Атласе облаков (PDF).
T - Температура воздуха - температура, измеренная на высоте 2 м над землей.
Td - Температура точки росы - температура, при понижении до которой содержащийся в воздухе водяной пар достигнет насыщения.
f - Относительная влажность воздуха - влажноcть воздуха, измеренная на высоте 2 м над землей.
Te - Эффективная температура - температура, которую ощущает одетый по сезону человек в тени. Характеристика душности погоды. При расчете учитывается влияние влажности воздуха и скорости ветра на теплоощущения человека.
Tes - Эффективная температура на солнце - температура, которую ощущает человек, с поправкой на солнечный нагрев. Характеристика знойности погоды. Зависит от высоты солнца над горизонтом, облачности и скорости ветра. Ночью, в пасмурную погоду, а также при ветре 12 м/с и более поправка равна нулю.
P - Атмосферное давление - приведенное к уровню моря атмосферное давление.
Po - Атмосферное давление - измеренное на уровне метеостанции атмосферное давление.
Tmin - Минимальная температура - минимум температуры воздуха на высоте 2 м над землей.
Tmax - Максимальная температура - максимум температуры воздуха на высоте 2 м над землей.
R - Количество осадков - Количество выпавших осадков за период времени, мм. При наведении курсора мыши на число - период времени, за который выпало указанное количество осадков.
R24 - Количество осадков - Количество выпавших осадков за 24 часа, мм.
S - Снежный покров - Высота снежного покрова, см. При наведении курсора мыши на число - состояние снежного покрова и степень покрытия местности в баллах.